Fryeburg, ME

1:20 AM EDT on July 25, 2017 (GMT -0400)
Eastern Slopes Regional

Weather History for KIZG - May, 2012

Change the Weather History Date:

Tuesday, May 29, 2012

  Actual Average Record
Temperature  
Mean Temperature 58 °F -  
Max Temperature 62 °F 68 °F 91 °F (1998)
Min Temperature 55 °F 42 °F 32 °F (2014)
Degree Days  
Heating Degree Days 7    
Growing Degree Days 8 (Base 50)    
Moisture  
Dew Point 57 °F    
Average Humidity 97    
Maximum Humidity 100    
Minimum Humidity 87    
Precipitation  
Precipitation 2.72 in - - ()
Sea Level Pressure  
Sea Level Pressure 29.86 in    
Wind  
Wind Speed 3 mph (SE)    
Max Wind Speed 10 mph    
Max Gust Speed -    
Visibility 6 miles    
Events Rain , Thunderstorm    
Averages and records for this station are not official NWS values.
T = Trace of Precipitation, MM = Missing Value Source: NWS Daily Summary

Daily Weather History Graph

Daily Weather History Graph

Search for Another Location

Airport or City:

Trip Planner

Search our weather history database for the weather conditions in past years. The results will help you decide how hot, cold, wet, or windy it might be!

Date:

Astronomy

May. 29, 2012 Rise Set
Actual Time 5:05 AM EDT 8:17 PM EDT
Civil Twilight 4:30 AM EDT 8:52 PM EDT
Nautical Twilight 3:45 AM EDT 9:38 PM EDT
Astronomical Twilight 2:50 AM EDT 10:33 PM EDT
Moon 1:32 PM EDT (5/29) 1:10 AM EDT (5/29)
Length of Visible Light 16h 22m
Length of Day
15h 12m
First Quarter, 59% of the Moon is Illuminated
May 29
First Quarter
Jun 4
Full
Jun 11
Last Quarter
Jun 19
New
Jun 26
First Quarter

Hourly Weather History & Observations

Time (EDT) Temp. Dew Point Humidity Pressure Visibility Wind Dir Wind Speed Gust Speed Precip Events Conditions
12:54 AM 57.9 °F 55.9 °F 93% 29.96 in 10.0 mi Calm Calm - 0.01 in   Overcast
1:15 AM 59.0 °F 55.4 °F 88% 29.95 in 10.0 mi Calm Calm - N/A Thunderstorm Overcast
1:30 AM 57.2 °F 55.4 °F 94% 29.94 in 10.0 mi SSE 4.6 mph - N/A   Overcast
1:54 AM 57.9 °F 54.0 °F 87% 29.96 in 10.0 mi Calm Calm - N/A   Overcast
2:09 AM 57.2 °F 55.4 °F 94% 29.95 in 10.0 mi Calm Calm - 0.00 in Rain Light Rain
2:27 AM 57.2 °F 55.4 °F 94% 29.95 in 8.0 mi NNE 3.5 mph - 0.01 in Rain , Thunderstorm Light Rain
2:54 AM 55.9 °F 55.0 °F 97% 29.98 in 4.0 mi West 3.5 mph - 0.08 in Rain , Thunderstorm Thunderstorms and Rain
3:22 AM 55.4 °F 55.4 °F 100% 29.94 in 7.0 mi Calm Calm - 0.07 in Rain , Thunderstorm Light Thunderstorms and Rain
3:31 AM 55.4 °F 55.4 °F 100% 29.94 in 10.0 mi Calm Calm - 0.07 in Rain , Thunderstorm Light Thunderstorms and Rain
3:54 AM 57.0 °F 55.0 °F 93% 29.93 in 10.0 mi Calm Calm - 0.08 in Rain , Thunderstorm Light Rain
4:08 AM 55.4 °F 55.4 °F 100% 29.93 in 2.5 mi SSW 3.5 mph - 0.08 in Rain , Thunderstorm Light Thunderstorms and Rain
4:24 AM 55.4 °F 55.4 °F 100% 29.93 in 3.0 mi Variable 4.6 mph - 0.18 in Rain , Thunderstorm Thunderstorms and Rain
4:30 AM 55.4 °F 55.4 °F 100% 29.92 in 1.8 mi Variable 3.5 mph - 0.33 in Rain , Thunderstorm Thunderstorms and Rain
4:33 AM 55.4 °F 55.4 °F 100% 29.89 in 1.2 mi SSE 10.4 mph - 0.39 in Rain , Thunderstorm Heavy Thunderstorms and Rain
4:39 AM 55.4 °F 55.4 °F 100% 29.89 in 1.5 mi Calm Calm - 0.42 in Rain , Thunderstorm Thunderstorms and Rain
4:43 AM 55.4 °F 55.4 °F 100% 29.90 in 3.0 mi Calm Calm - 0.42 in Rain , Thunderstorm Light Thunderstorms and Rain
4:54 AM 55.9 °F 55.9 °F 100% 29.89 in 9.0 mi Calm Calm - 0.43 in Rain Light Rain
5:02 AM 55.4 °F 55.4 °F 100% 29.89 in 8.0 mi Calm Calm - 0.00 in Rain Light Rain
5:18 AM 55.4 °F 55.4 °F 100% 29.89 in 10.0 mi Calm Calm - 0.00 in   Overcast
5:34 AM 55.4 °F 55.4 °F 100% 29.92 in 10.0 mi North 3.5 mph - 0.00 in   Overcast
5:54 AM 55.9 °F 55.9 °F 100% 29.91 in 9.0 mi ESE 3.5 mph - 0.00 in   Overcast
6:03 AM 55.4 °F 55.4 °F 100% 29.90 in 8.0 mi SSE 3.5 mph - N/A   Overcast
6:54 AM 55.9 °F 55.9 °F 100% 29.89 in 10.0 mi Calm Calm - N/A   Overcast
7:54 AM 57.0 °F 55.9 °F 96% 29.93 in 7.0 mi Calm Calm - N/A   Overcast
8:09 AM 57.2 °F 55.4 °F 94% 29.91 in 2.0 mi East 5.8 mph - 0.05 in Rain , Thunderstorm Rain
8:11 AM 57.2 °F 55.4 °F 94% 29.92 in 1.2 mi Variable 3.5 mph - 0.06 in Rain , Thunderstorm Rain
8:21 AM 55.4 °F 55.4 °F 100% 29.90 in 2.0 mi East 5.8 mph - 0.07 in Rain , Thunderstorm Light Rain
8:30 AM 57.2 °F 55.4 °F 94% 29.89 in 4.0 mi SE 5.8 mph - 0.08 in Rain Light Rain
8:40 AM 57.2 °F 55.4 °F 94% 29.88 in 7.0 mi SE 5.8 mph - 0.08 in Rain Light Rain
8:54 AM 57.0 °F 55.9 °F 96% 29.87 in 7.0 mi Variable 3.5 mph - 0.09 in Rain Light Rain
9:17 AM 57.2 °F 55.4 °F 94% 29.93 in 7.0 mi Calm Calm - 0.01 in Thunderstorm Thunderstorm
9:21 AM 57.2 °F 55.4 °F 94% 29.90 in 2.0 mi East 4.6 mph - 0.06 in Rain , Thunderstorm Thunderstorms and Rain
9:28 AM 57.2 °F 55.4 °F 94% 29.92 in 1.5 mi NNE 4.6 mph - 0.08 in Rain , Thunderstorm Light Thunderstorms and Rain
9:32 AM 57.2 °F 55.4 °F 94% 29.95 in 3.0 mi North 5.8 mph - 0.09 in Rain , Thunderstorm Thunderstorms and Rain
9:47 AM 57.2 °F 55.4 °F 94% 29.90 in 7.0 mi Variable 5.8 mph - 0.11 in Rain Light Rain
9:54 AM 57.0 °F 57.0 °F 100% 29.88 in 10.0 mi Variable 6.9 mph - 0.11 in Rain Light Rain
10:02 AM 57.2 °F 57.2 °F 100% 29.87 in 10.0 mi ESE 6.9 mph - 0.00 in Rain Light Rain
10:11 AM 57.2 °F 55.4 °F 94% 29.90 in 10.0 mi South 8.1 mph - 0.00 in   Overcast
10:54 AM 57.9 °F 57.0 °F 97% 29.92 in 6.0 mi ESE 5.8 mph - 0.02 in Rain Light Rain
11:17 AM 57.2 °F 57.2 °F 100% 29.92 in 10.0 mi Variable 3.5 mph - 0.02 in Rain Light Rain
11:34 AM 57.2 °F 57.2 °F 100% 29.89 in 10.0 mi SSE 6.9 mph - 0.02 in   Overcast
11:54 AM 57.9 °F 57.0 °F 97% 29.90 in 10.0 mi Calm Calm - 0.02 in   Overcast
12:54 PM 59.0 °F 57.0 °F 93% 29.89 in 10.0 mi SSW 4.6 mph - N/A   Overcast
1:54 PM 60.1 °F 57.9 °F 93% 29.87 in 10.0 mi South 3.5 mph - N/A   Overcast
2:54 PM 61.0 °F 57.9 °F 90% 29.83 in 10.0 mi SSE 3.5 mph - N/A   Overcast
3:54 PM 61.0 °F 59.0 °F 93% 29.81 in 10.0 mi SE 3.5 mph - N/A   Overcast
4:54 PM 61.0 °F 59.0 °F 93% 29.81 in 10.0 mi SSE 3.5 mph - N/A   Overcast
5:45 PM 59.0 °F 59.0 °F 100% 29.79 in 3.0 mi SE 5.8 mph - 0.01 in Rain , Thunderstorm Light Rain
5:48 PM 59.0 °F 59.0 °F 100% 29.80 in 2.5 mi SSW 3.5 mph - 0.01 in Rain , Thunderstorm Light Rain
5:54 PM 59.0 °F 57.9 °F 96% 29.83 in 2.5 mi WSW 3.5 mph - 0.01 in Rain , Thunderstorm Light Rain
6:02 PM 59.0 °F 57.2 °F 94% 29.81 in 4.0 mi Variable 3.5 mph - 0.00 in Rain , Thunderstorm Light Rain
6:13 PM 59.0 °F 59.0 °F 100% 29.84 in 1.8 mi Variable 5.8 mph - 0.09 in Rain , Thunderstorm Heavy Thunderstorms and Rain
6:18 PM 59.0 °F 57.2 °F 94% 29.80 in 0.8 mi East 8.1 mph - 0.40 in Rain , Thunderstorm Heavy Thunderstorms and Rain
6:33 PM 59.0 °F 59.0 °F 100% 29.78 in 0.8 mi ESE 10.4 mph - 0.67 in Rain , Thunderstorm Heavy Thunderstorms and Rain
6:42 PM 59.0 °F 59.0 °F 100% 29.79 in 1.5 mi SSE 4.6 mph - 0.70 in Rain , Thunderstorm Light Thunderstorms and Rain
6:54 PM 59.0 °F 59.0 °F 100% 29.78 in 1.2 mi Calm Calm - 0.81 in Rain , Thunderstorm Light Thunderstorms and Rain
6:57 PM 59.0 °F 59.0 °F 100% 29.78 in 2.0 mi ESE 5.8 mph - 0.00 in Rain , Thunderstorm Light Thunderstorms and Rain
7:04 PM 59.0 °F 59.0 °F 100% 29.79 in 8.0 mi Calm Calm - 0.00 in Rain , Thunderstorm Light Rain
7:17 PM 59.0 °F 59.0 °F 100% 29.78 in 9.0 mi Calm Calm - 0.01 in Rain , Thunderstorm Light Rain
7:24 PM 59.0 °F 59.0 °F 100% 29.79 in 7.0 mi Calm Calm - 0.02 in Rain Light Rain
7:54 PM 59.0 °F 59.0 °F 100% 29.77 in 3.0 mi Calm Calm - 0.14 in Rain , Thunderstorm Light Thunderstorms and Rain
8:03 PM 59.0 °F 57.2 °F 94% 29.78 in 2.0 mi Variable 3.5 mph - 0.08 in Rain , Thunderstorm Heavy Thunderstorms and Rain
8:07 PM 59.0 °F 59.0 °F 100% 29.80 in 1.8 mi SSW 6.9 mph - 0.11 in Rain , Thunderstorm Heavy Thunderstorms and Rain
8:14 PM 59.0 °F 59.0 °F 100% 29.80 in 0.8 mi SW 5.8 mph - 0.45 in Rain , Thunderstorm Heavy Thunderstorms and Rain
8:23 PM 59.0 °F 59.0 °F 100% 29.80 in 1.0 mi SE 6.9 mph - 0.57 in Rain , Thunderstorm Heavy Thunderstorms and Rain
8:30 PM 59.0 °F 59.0 °F 100% 29.77 in 2.0 mi East 6.9 mph - 0.64 in Rain , Thunderstorm Heavy Thunderstorms and Rain
8:40 PM 59.0 °F 59.0 °F 100% 29.79 in 4.0 mi ESE 3.5 mph - 0.68 in Rain , Thunderstorm Thunderstorms and Rain
8:46 PM 59.0 °F 59.0 °F 100% 29.79 in 4.0 mi Calm Calm - 0.71 in Rain Rain
8:54 PM 59.0 °F 59.0 °F 100% 29.80 in 4.0 mi ESE 3.5 mph - 0.74 in Rain , Thunderstorm Thunderstorms and Rain
9:03 PM 59.0 °F 59.0 °F 100% 29.79 in 5.0 mi ESE 5.8 mph - 0.03 in Rain , Thunderstorm Thunderstorms and Rain
9:13 PM 59.0 °F 59.0 °F 100% 29.79 in 5.0 mi Calm Calm - 0.07 in Rain Rain
9:46 PM 59.0 °F 57.2 °F 94% 29.78 in 7.0 mi Calm Calm - 0.13 in Rain Rain
9:54 PM 59.0 °F 57.9 °F 96% 29.78 in 7.0 mi NW 4.6 mph - 0.14 in Rain Light Rain
10:01 PM 59.0 °F 57.2 °F 94% 29.76 in 8.0 mi NE 3.5 mph - 0.01 in Rain Rain
10:18 PM 59.0 °F 59.0 °F 100% 29.76 in 8.0 mi Calm Calm - 0.03 in Rain Rain
10:54 PM 59.0 °F 59.0 °F 100% 29.75 in 10.0 mi Calm Calm - 0.04 in Rain Light Rain
11:01 PM 59.0 °F 59.0 °F 100% 29.74 in 10.0 mi Calm Calm - 0.00 in Rain Light Rain
11:26 PM 59.0 °F 59.0 °F 100% 29.74 in 10.0 mi Calm Calm - 0.00 in   Overcast
11:54 PM 59.0 °F 59.0 °F 100% 29.73 in 10.0 mi SE 4.6 mph - 0.00 in   Overcast